Time,TemperatureF,DewpointF,PressureIn,WindDirection,WindDirectionDegrees,WindSpeedMPH,WindSpeedGustMPH,Humidity,HourlyPrecipIn,Conditions,Clouds,dailyrainin,SoftwareType,DateUTC
2015-07-01 00:04:00,62.6,59.6,30.17,West,270,0.0,-999.0,90,-99.99,,,0.00,Acu-Link.com,2015-07-01 04:04:00,
2015-07-01 00:19:00,62.4,59.4,30.17,West,270,0.0,-999.0,90,-99.99,,,0.00,Acu-Link.com,2015-07-01 04:19:00,
2015-07-01 00:34:00,62.6,59.6,30.17,West,270,2.0,-999.0,90,-99.99,,,0.00,Acu-Link.com,2015-07-01 04:34:00,
2015-07-01 00:49:00,60.8,57.8,30.17,SSE,157,0.0,-999.0,90,-99.99,,,0.00,Acu-Link.com,2015-07-01 04:49:00,
2015-07-01 01:04:00,60.8,57.8,30.17,North,0,0.0,-999.0,90,-99.99,,,0.00,Acu-Link.com,2015-07-01 05:04:00,
2015-07-01 01:19:00,60.8,58.2,30.17,North,0,0.0,-999.0,91,-99.99,,,0.00,Acu-Link.com,2015-07-01 05:19:00,
2015-07-01 01:34:00,60.8,58.2,30.17,West,270,0.0,-999.0,91,-99.99,,,0.00,Acu-Link.com,2015-07-01 05:34:00,
2015-07-01 01:50:00,62.1,59.4,30.17,NNW,337,0.0,-999.0,91,-99.99,,,0.62,Acu-Link.com,2015-07-01 05:50:00,
2015-07-01 02:05:00,62.1,59.4,30.17,West,270,0.0,-999.0,91,-99.99,,,0.62,Acu-Link.com,2015-07-01 06:05:00,
2015-07-01 02:20:00,62.6,59.9,30.17,NNW,337,1.1,-999.0,91,-99.99,,,0.62,Acu-Link.com,2015-07-01 06:20:00,
2015-07-01 02:35:00,62.1,59.4,30.17,WNW,292,1.6,-999.0,91,-99.99,,,0.62,Acu-Link.com,2015-07-01 06:35:00,
2015-07-01 02:50:00,62.1,59.4,30.17,North,0,2.7,-999.0,91,-99.99,,,0.62,Acu-Link.com,2015-07-01 06:50:00,
2015-07-01 03:05:00,62.1,59.4,30.17,NW,315,1.6,-999.0,91,-99.99,,,1.24,Acu-Link.com,2015-07-01 07:05:00,
2015-07-01 03:20:00,61.9,59.2,30.17,WNW,292,2.7,-999.0,91,-99.99,,,1.24,Acu-Link.com,2015-07-01 07:20:00,
2015-07-01 03:35:00,61.3,58.7,30.17,West,270,0.0,-999.0,91,-99.99,,,1.85,Acu-Link.com,2015-07-01 07:35:00,
2015-07-01 03:50:00,60.6,58.0,30.18,West,270,0.0,-999.0,91,-99.99,,,1.85,Acu-Link.com,2015-07-01 07:50:00,
2015-07-01 04:05:00,59.9,57.3,30.19,West,270,0.0,-999.0,91,-99.99,,,1.85,Acu-Link.com,2015-07-01 08:05:00,
2015-07-01 04:20:00,59.4,56.7,30.19,West,270,0.0,-999.0,91,-99.99,,,1.85,Acu-Link.com,2015-07-01 08:20:00,
2015-07-01 04:35:00,59.4,56.7,30.18,WSW,247,0.0,-999.0,91,-99.99,,,1.85,Acu-Link.com,2015-07-01 08:35:00,
2015-07-01 04:50:00,59.0,56.7,-7.53,WNW,292,1.1,-999.0,92,-99.99,,,2.47,Acu-Link.com,2015-07-01 08:50:00,
2015-07-01 05:05:00,60.3,57.9,30.19,WNW,292,1.1,-999.0,92,-99.99,,,2.47,Acu-Link.com,2015-07-01 09:05:00,
2015-07-01 05:20:00,60.3,57.9,30.19,West,270,0.0,-999.0,92,-99.99,,,3.09,Acu-Link.com,2015-07-01 09:20:00,
2015-07-01 05:35:00,60.3,57.9,30.19,WNW,292,1.6,-999.0,92,-99.99,,,3.71,Acu-Link.com,2015-07-01 09:35:00,
2015-07-01 05:50:00,60.4,58.1,30.20,SSW,202,0.0,-999.0,92,-99.99,,,4.33,Acu-Link.com,2015-07-01 09:50:00,
2015-07-01 06:05:00,60.4,58.1,30.20,North,0,1.6,-999.0,92,-99.99,,,4.34,Acu-Link.com,2015-07-01 10:05:00,
2015-07-01 06:20:00,60.4,58.1,30.20,West,270,0.0,-999.0,92,-99.99,,,4.34,Acu-Link.com,2015-07-01 10:20:00,
2015-07-01 06:35:00,60.4,58.1,30.21,North,0,1.1,-999.0,92,-99.99,,,4.34,Acu-Link.com,2015-07-01 10:35:00,
2015-07-01 06:51:00,60.8,58.5,30.22,North,0,2.0,-999.0,92,-99.99,,,4.34,Acu-Link.com,2015-07-01 10:51:00,
2015-07-01 07:07:00,60.6,58.0,30.23,WNW,292,0.0,-999.0,91,-99.99,,,4.34,Acu-Link.com,2015-07-01 11:07:00,
2015-07-01 07:22:00,60.6,57.7,30.23,NW,315,1.6,-999.0,90,-99.99,,,4.34,Acu-Link.com,2015-07-01 11:22:00,
2015-07-01 07:37:00,60.6,57.7,30.23,WSW,247,0.0,-999.0,90,-99.99,,,4.34,Acu-Link.com,2015-07-01 11:37:00,
2015-07-01 07:52:00,60.8,57.8,30.23,WSW,247,2.7,-999.0,90,-99.99,,,4.34,Acu-Link.com,2015-07-01 11:52:00,
2015-07-01 08:07:00,61.0,57.7,30.23,WSW,247,1.6,-999.0,89,-99.99,,,4.34,Acu-Link.com,2015-07-01 12:07:00,
2015-07-01 08:22:00,60.8,57.2,30.24,WSW,247,2.7,-999.0,88,-99.99,,,4.34,Acu-Link.com,2015-07-01 12:22:00,
2015-07-01 08:37:00,61.7,57.8,30.24,WSW,247,3.8,-999.0,87,-99.99,,,4.34,Acu-Link.com,2015-07-01 12:37:00,
2015-07-01 08:52:00,60.8,56.9,30.25,WSW,247,2.2,-999.0,87,-99.99,,,4.34,Acu-Link.com,2015-07-01 12:52:00,
2015-07-01 09:08:00,62.2,58.0,30.25,WSW,247,2.2,-999.0,86,-99.99,,,4.34,Acu-Link.com,2015-07-01 13:08:00,
2015-07-01 09:23:00,62.2,58.0,30.25,WSW,247,2.2,-999.0,86,-99.99,,,4.34,Acu-Link.com,2015-07-01 13:23:00,
2015-07-01 09:39:00,62.2,58.0,30.26,WSW,247,2.2,-999.0,86,-99.99,,,4.34,Acu-Link.com,2015-07-01 13:39:00,
2015-07-01 09:54:00,62.2,58.0,30.27,WSW,247,2.2,-999.0,86,-99.99,,,4.34,Acu-Link.com,2015-07-01 13:54:00,
2015-07-01 10:09:00,62.2,58.0,30.27,WSW,247,2.2,-999.0,86,-99.99,,,4.34,Acu-Link.com,2015-07-01 14:09:00,
2015-07-01 10:24:00,62.6,58.3,30.26,WSW,247,2.0,-999.0,86,-99.99,,,4.34,Acu-Link.com,2015-07-01 14:24:00,
2015-07-01 10:39:00,62.6,58.3,30.26,WSW,247,2.0,-999.0,86,-99.99,,,4.34,Acu-Link.com,2015-07-01 14:39:00,
2015-07-01 10:54:00,62.2,58.0,30.26,WSW,247,2.2,-999.0,86,-99.99,,,4.34,Acu-Link.com,2015-07-01 14:54:00,
2015-07-01 11:10:00,62.2,58.0,6.18,WSW,247,2.2,-999.0,86,-99.99,,,4.34,Acu-Link.com,2015-07-01 15:10:00,
2015-07-01 11:25:00,62.2,58.0,30.26,WSW,247,2.2,-999.0,86,-99.99,,,4.34,Acu-Link.com,2015-07-01 15:25:00,
2015-07-01 11:40:00,62.6,58.3,30.26,WSW,247,2.0,-999.0,86,-99.99,,,4.34,Acu-Link.com,2015-07-01 15:40:00,
2015-07-01 11:55:00,62.6,58.3,30.26,WSW,247,2.2,-999.0,86,-99.99,,,4.34,Acu-Link.com,2015-07-01 15:55:00,
2015-07-01 12:11:00,62.6,58.3,30.26,WSW,247,2.0,-999.0,86,-99.99,,,4.34,Acu-Link.com,2015-07-01 16:11:00,
2015-07-01 12:26:00,67.8,56.5,30.28,WSW,247,4.3,-999.0,67,-99.99,,,4.34,Acu-Link.com,2015-07-01 16:26:00,
2015-07-01 12:41:00,69.8,57.1,30.29,WSW,247,7.8,-999.0,64,-99.99,,,4.34,Acu-Link.com,2015-07-01 16:41:00,
2015-07-01 12:56:00,70.2,57.4,30.29,WSW,247,7.8,-999.0,64,-99.99,,,4.34,Acu-Link.com,2015-07-01 16:56:00,
2015-07-01 13:11:00,70.2,57.4,30.29,WSW,247,7.8,-999.0,64,-99.99,,,4.34,Acu-Link.com,2015-07-01 17:11:00,
2015-07-01 13:28:00,69.8,57.1,30.30,WSW,247,7.8,-999.0,64,-99.99,,,4.34,Acu-Link.com,2015-07-01 17:28:00,
2015-07-01 13:43:00,70.2,57.4,30.30,WSW,247,7.8,-999.0,64,-99.99,,,4.34,Acu-Link.com,2015-07-01 17:43:00,
2015-07-01 13:58:00,145.4,8.9,30.30,WSW,247,0.0,-999.0,0,-99.99,,,4.34,Acu-Link.com,2015-07-01 17:58:00,
2015-07-01 14:13:00,70.2,57.4,30.30,WSW,247,7.8,-999.0,64,-99.99,,,4.34,Acu-Link.com,2015-07-01 18:13:00,
2015-07-01 14:28:00,70.2,57.4,30.30,WSW,247,7.8,-999.0,64,-99.99,,,4.34,Acu-Link.com,2015-07-01 18:28:00,
2015-07-01 14:43:00,69.8,57.1,30.30,WSW,247,7.8,-999.0,64,-99.99,,,4.34,Acu-Link.com,2015-07-01 18:43:00,
2015-07-01 14:58:00,69.8,57.1,30.30,WSW,247,7.8,-999.0,64,-99.99,,,4.34,Acu-Link.com,2015-07-01 18:58:00,
2015-07-01 15:13:00,69.8,57.1,30.30,WSW,247,7.8,-999.0,64,-99.99,,,4.34,Acu-Link.com,2015-07-01 19:13:00,
2015-07-01 15:28:00,70.2,57.4,30.30,WSW,247,7.8,-999.0,64,-99.99,,,4.34,Acu-Link.com,2015-07-01 19:28:00,
2015-07-01 15:43:00,70.2,57.4,30.30,WSW,247,7.8,-999.0,64,-99.99,,,4.34,Acu-Link.com,2015-07-01 19:43:00,
2015-07-01 15:58:00,70.2,57.4,30.30,WSW,247,7.8,-999.0,64,-99.99,,,4.34,Acu-Link.com,2015-07-01 19:58:00,
2015-07-01 16:14:00,69.8,57.1,30.30,WSW,247,7.8,-999.0,64,-99.99,,,4.34,Acu-Link.com,2015-07-01 20:14:00,
2015-07-01 16:29:00,70.2,57.4,30.30,WSW,247,7.8,-999.0,64,-99.99,,,4.34,Acu-Link.com,2015-07-01 20:29:00,
2015-07-01 16:44:00,70.2,57.4,30.30,WSW,247,7.8,-999.0,64,-99.99,,,4.34,Acu-Link.com,2015-07-01 20:44:00,
2015-07-01 16:59:00,69.8,57.1,30.30,WSW,247,7.8,-999.0,64,-99.99,,,4.34,Acu-Link.com,2015-07-01 20:59:00,
2015-07-01 17:14:00,70.2,57.4,30.30,WSW,247,7.8,-999.0,64,-99.99,,,4.34,Acu-Link.com,2015-07-01 21:14:00,
2015-07-01 17:29:00,70.2,57.4,-7.53,WSW,247,7.8,-999.0,64,-99.99,,,4.34,Acu-Link.com,2015-07-01 21:29:00,
2015-07-01 17:44:00,69.8,57.1,30.30,WSW,247,7.8,-999.0,64,-99.99,,,4.34,Acu-Link.com,2015-07-01 21:44:00,
2015-07-01 17:59:00,69.8,57.1,30.30,WSW,247,7.8,-999.0,64,-99.99,,,4.34,Acu-Link.com,2015-07-01 21:59:00,
2015-07-01 18:15:00,70.2,57.4,6.18,WSW,247,7.8,-999.0,64,-99.99,,,4.34,Acu-Link.com,2015-07-01 22:15:00,
2015-07-01 18:30:00,70.2,57.4,30.30,WSW,247,7.8,-999.0,64,-99.99,,,4.34,Acu-Link.com,2015-07-01 22:30:00,
2015-07-01 18:45:00,70.2,57.4,30.30,WSW,247,7.8,-999.0,64,-99.99,,,4.34,Acu-Link.com,2015-07-01 22:45:00,
2015-07-01 19:00:00,69.8,57.1,30.30,WSW,247,7.8,-999.0,64,-99.99,,,4.34,Acu-Link.com,2015-07-01 23:00:00,
2015-07-01 19:15:00,69.8,57.1,30.30,WSW,247,7.8,-999.0,64,-99.99,,,4.34,Acu-Link.com,2015-07-01 23:15:00,
2015-07-01 19:30:00,69.8,57.1,30.30,WSW,247,7.8,-999.0,64,-99.99,,,4.34,Acu-Link.com,2015-07-01 23:30:00,
2015-07-01 19:45:00,69.8,57.1,30.30,WSW,247,7.8,-999.0,64,-99.99,,,4.34,Acu-Link.com,2015-07-01 23:45:00,
2015-07-01 20:00:00,69.8,57.1,30.30,WSW,247,7.8,-999.0,64,-99.99,,,4.34,Acu-Link.com,2015-07-02 00:00:00,
2015-07-01 20:15:00,64.4,52.8,30.28,WSW,247,0.0,-999.0,66,-99.99,,,4.34,Acu-Link.com,2015-07-02 00:15:00,
2015-07-01 20:30:00,62.6,53.1,30.29,WSW,247,0.0,-999.0,71,-99.99,,,4.34,Acu-Link.com,2015-07-02 00:30:00,
2015-07-01 20:45:00,63.5,55.1,30.29,WSW,247,0.0,-999.0,74,-99.99,,,4.34,Acu-Link.com,2015-07-02 00:45:00,
2015-07-01 21:00:00,60.8,53.5,30.30,WSW,247,1.6,-999.0,77,-99.99,,,4.34,Acu-Link.com,2015-07-02 01:00:00,
2015-07-01 21:16:00,60.1,53.9,30.30,WSW,247,1.6,-999.0,80,-99.99,,,4.34,Acu-Link.com,2015-07-02 01:16:00,
2015-07-01 21:31:00,59.0,53.2,30.30,WSW,247,0.0,-999.0,81,-99.99,,,4.34,Acu-Link.com,2015-07-02 01:31:00,